Location: Mequon Rotary Park
(43.2522°N, 87.9594°W)
Time: 05:51:37
(UTC-06:00)

Daily predictions for brighter satellites

Satellite Brightness Start Highest point End
(mag) Time Altitude Azimuth Time Altitude Azimuth Time Altitude Azimuth
Cosmos 2369 Rocket 4.1 03:31:57 26° ENE 03:31:57 26° ENE 03:35:31 10° ESE
Cosmos 1943 Rocket 4.1 03:56:05 21° NNE 03:57:19 22° NE 04:01:33 10° E
CZ-3 R/B 4.2 03:58:02 14° SW 04:08:56 25° S 04:14:55 10° SE
COSMO-SKYMED 1 4.1 04:23:39 10° SE 04:27:33 33° ENE 04:28:33 30° NE
Lacrosse 5 2.8 04:31:36 39° NNE 04:31:36 39° NNE 04:34:54 10° NE
Feng Yun 1-1 Rocket 4.1 04:31:23 10° NNE 04:36:59 88° ESE 04:42:25 10° SSW
Cosmos 1610 Rocket 4.3 04:31:39 10° S 04:37:51 86° W 04:44:11 10° N
Cosmos 44 3.4 04:41:02 87° E 04:41:02 87° E 04:46:11 10° NE
USA 215 4.3 04:41:20 10° ENE 04:47:30 43° SE 04:53:38 10° SSW
Cosmos 2263 4.2 04:46:13 47° N 04:47:52 77° ENE 04:53:26 10° SSE
Lacrosse 5 rocket 3.8 04:49:56 13° NNE 04:49:56 13° NNE 04:51:42 10° NE
Okean 1-7 Rocket 3.7 04:52:12 63° S 04:52:12 63° S 04:55:54 10° S
CENTAUR R/B 4.1 04:56:21 21° NNW 04:56:21 21° NNW 05:01:20 10° NNE
Meteor 2-13 Rocket 4.3 04:54:24 10° S 05:00:34 81° W 05:06:46 10° N
Ariane Rocket 4.0 04:56:54 10° NNE 05:01:47 47° E 05:06:39 10° S
Meteor 1-19 Rocket 4.1 05:00:26 33° NNW 05:03:08 69° W 05:08:50 10° S
CRYOSAT 2 4.3 05:01:09 10° S 05:05:59 63° W 05:07:02 50° NW
ATLAS 5 CENTAUR R/B 4.4 05:07:04 10° N 05:09:51 13° NNE 05:12:44 10° NE
Nadezhda 3 Rocket 4.0 05:04:11 10° NNW 05:10:27 65° W 05:16:43 10° S
Cosmos 2369 Rocket 2.4 05:13:48 43° WNW 05:14:52 48° WSW 05:20:17 10° S
DMSP B5D1-3 4.5 05:10:11 10° SSE 05:15:20 86° ENE 05:20:23 11° NNW
SKYMED 2 3.4 05:11:09 10° S 05:15:29 75° WSW 05:17:10 37° NNW
Meteor 1-11 Rocket 3.8 05:14:16 10° SSW 05:19:55 54° WNW 05:25:30 10° N
Lacrosse 4 Rocket 1.6 05:19:39 32° NNW 05:21:24 66° ENE 05:25:27 10° SE
Cosmos 1025 Rocket 2.9 05:20:52 35° NNW 05:22:33 64° W 05:26:49 10° S
Cosmos 962 Rocket 4.4 05:17:41 10° SSW 05:23:51 68° W 05:30:09 10° N
Meteor 2-4 Rocket 3.7 05:20:13 16° NNW 05:24:43 63° W 05:30:20 10° S
Meteor 1-23 Rocket 4.1 05:19:19 11° NNW 05:24:45 73° W 05:30:17 10° S
Meteor 1-5 Rocket 4.0 05:28:29 10° S 05:33:48 84° W 05:39:08 10° N
NOSS 3-1 (C) 4.3 05:29:28 10° S 05:35:02 49° ESE 05:41:12 10° NE
Abrixas rocket 3.1 05:38:30 33° NNW 05:38:55 34° N 05:42:02 10° ENE
SL-24 DEB 4.2 05:34:14 10° S 05:38:59 64° W 05:43:46 10° N
SL-27 R/B 4.1 05:35:44 10° S 05:39:02 37° ESE 05:42:25 10° NE
Cosmos 1943 Rocket 2.1 05:37:39 20° NW 05:41:30 61° WSW 05:46:54 10° S
Cosmos 1943 3.7 05:39:04 18° WSW 05:42:40 36° NW 05:47:52 10° N
Cosmos 1452 Rocket 4.2 05:41:22 26° WNW 05:43:07 33° W 05:47:47 10° SSW
Meteor 2-19 Rocket 4.4 05:37:25 10° S 05:43:33 89° W 05:49:40 10° N
Cosmos 2341 Rocket 4.2 05:39:19 10° SSW 05:45:19 47° WNW 05:51:20 10° N
Meteor 2-8 Rocket 4.4 05:39:40 10° NNW 05:45:48 69° W 05:51:53 10° S
Cosmos 1515 4.4 05:42:34 10° N 05:46:21 54° E 05:50:05 10° SSE
CSL-04 DEB 4.5 05:46:40 10° N 05:50:42 57° WNW 05:54:50 10° SSW
Helios 1B rocket 3.6 05:47:02 10° SE 05:50:59 44° ENE 05:54:56 10° N
Tiangong 2 3.0 05:52:03 16° SW 05:52:57 18° SSW 05:55:09 10° SSE
Cosmos 158 Rocket 4.1 05:49:29 10° SSW 05:54:49 88° ESE 06:00:15 10° NNE
Cosmos 1544 Rocket 3.5 05:51:29 10° SSW 05:55:47 61° W 06:00:10 10° N
IDEFIX/ARIANE 42P 3.6 05:51:17 10° NNE 05:56:21 50° E 06:01:24 10° S
CZ-4C R/B 4.3 05:50:44 10° NNW 05:56:31 28° NE 06:02:50 10° E
Cosmos 1656 Rocket 3.8 05:52:10 10° NNW 05:57:52 85° ENE 06:03:33 10° SSE
Cosmos 839 Rocket 4.1 05:52:47 13° NW 05:58:30 62° WSW 06:04:31 10° SSE
SL-24 R/B 4.4 05:54:39 10° N 05:59:42 53° WNW 06:04:03 10° SSW
USA 129 1.7 05:58:25 10° S 06:00:33 55° WSW 06:01:15 33° NW
COSMO-SKYMED 1 3.7 06:00:18 10° SSW 06:03:45 23° W 06:05:46 17° WNW
Cosmos 1461 2.8 06:00:53 10° SW 06:05:11 71° NW 06:09:20 10° NNE
PAYLOAD A 4.1 06:02:50 10° NNE 06:08:16 85° WNW 06:13:42 10° SSW
CZ-2C R/B 2.9 06:03:13 10° NNE 06:08:22 67° ESE 06:13:19 10° S
USA 229 DEB 3.9 06:01:49 10° WSW 06:08:27 48° NW 06:15:12 10° NNE
USA 229 3.9 06:01:56 10° WSW 06:08:32 48° NW 06:15:18 10° NNE
Okean 2 4.3 06:07:33 11° NNW 06:10:58 28° W 06:14:32 10° SSW
Lacrosse 5 3.2 06:10:49 15° WNW 06:13:38 22° NNW 06:17:37 10° NNE
Cosmos 1500 3.1 06:10:48 10° S 06:14:32 87° W 06:18:20 10° N
Cosmos 1743 3.9 06:14:43 10° SSE 06:18:29 48° E 06:22:17 10° NNE
Cosmos 2084 4.2 06:16:12 10° WSW 06:19:29 26° NW 06:22:45 10° NNE
CZ-4 R/B 1.2 06:17:28 10° N 06:21:22 66° WNW 06:25:13 10° SSW
Meteor 1-28 Rocket 4.5 06:18:25 10° SSW 06:21:26 22° W 06:24:28 10° NW
NOSS 3-1 (A) 3.6 06:17:00 10° SSW 06:22:51 80° SE 06:29:25 10° NE
Cosmos 1340 4.1 06:22:06 11° NW 06:24:28 18° W 06:27:07 10° SW
SMAP 3.1 06:20:23 10° NNE 06:25:04 88° WNW 06:29:43 10° SSW
Meteor 1-12 Rocket 4.2 06:22:11 10° SSW 06:27:46 63° WNW 06:33:24 10° N
Lacrosse 5 rocket 3.0 06:26:15 10° NNW 06:30:02 28° NNE 06:33:57 10° E
USA 215 3.3 06:24:14 10° NE 06:30:39 62° NNW 06:37:04 10° WSW
Cosmos 1066 Rocket 4.1 06:25:32 10° NNW 06:30:57 75° W 06:36:28 10° S
Cosmos 1626 Rocket 3.6 06:27:18 10° NNW 06:31:40 58° W 06:35:56 10° S
CSL-04 Rocket 4.3 06:27:37 10° N 06:32:37 36° WNW 06:37:33 10° SW
Cosmos 405 Rocket 2.6 06:31:13 10° N 06:35:02 88° WSW 06:38:44 10° S
Ariane Rocket 4.1 06:36:32 10° NNW 06:40:26 23° WNW 06:44:20 10° WSW
Meteor 2-21 4.5 06:36:24 10° SSW 06:42:34 70° W 06:48:47 10° N
Cosmos 1455 Rocket 4.1 06:41:12 10° SW 06:44:42 24° WNW 06:48:14 10° NNW
Cosmos 2251 Rocket 3.6 06:39:53 10° SSW 06:45:14 70° WNW 06:50:38 10° NNE
AQUARIUS 4.3 06:41:26 10° N 06:45:49 52° WNW 06:50:10 10° SSW
Cosmos 1331 Rocket 4.1 06:41:00 10° NNW 06:46:04 57° WSW 06:51:05 10° S
